Manhattan, KS

6:57 AM CST on February 25, 2017 (GMT -0600)
Manhattan Regional

Weather History for KMHK - November, 2010

Change the Weather History Date:

Sunday, November 7, 2010

  Actual Average Record
Temperature  
Mean Temperature 60 °F 46 °F  
Max Temperature 77 °F 59 °F 79 °F (1999)
Min Temperature 44 °F 34 °F 19 °F (2007)
Degree Days  
Heating Degree Days 4 19  
Month to date heating degree days 122  
Since 1 July heating degree days 521  
Cooling Degree Days 0 0  
Month to date cooling degree days 0  
Year to date cooling degree days 1361  
Growing Degree Days 10 (Base 50)    
Moisture  
Dew Point 30 °F    
Average Humidity 36    
Maximum Humidity 63    
Minimum Humidity 15    
Precipitation  
Precipitation 0.00 in 0.06 in 1.52 in (2011)
Month to date precipitation 0.52  
Year to date precipitation 30.45  
Sea Level Pressure  
Sea Level Pressure 30.05 in    
Wind  
Wind Speed 12 mph (SSW)    
Max Wind Speed 21 mph    
Max Gust Speed 33 mph    
Visibility 10 miles    
Events      
T = Trace of Precipitation, MM = Missing Value Source: NWS Daily Summary

Daily Weather History Graph

Daily Weather History Graph

Search for Another Location

Airport or City:

Trip Planner

Search our weather history database for the weather conditions in past years. The results will help you decide how hot, cold, wet, or windy it might be!

Date:

Astronomy

Nov. 07, 2010 Rise Set
Actual Time 7:00 AM CST 5:19 PM CST
Civil Twilight 6:32 AM CST 5:47 PM CST
Nautical Twilight 6:00 AM CST 6:19 PM CST
Astronomical Twilight 5:29 AM CST 6:50 PM CST
Moon 8:46 AM CST (11/7) 6:20 PM CST (11/7)
Length of Visible Light 11h 14m
Length of Day
10h 18m
Waxing Crescent, 3% of the Moon is Illuminated
Nov 7
Waxing Crescent
Nov 13
First Quarter
Nov 21
Full
Nov 28
Last Quarter
Dec 5
New

Hourly Weather History & Observations

Time (CST) Temp. Windchill Dew Point Humidity Pressure Visibility Wind Dir Wind Speed Gust Speed Precip Events Conditions
12:52 AM 50.0 °F - 28.0 °F 43% 30.15 in 10.0 mi SSW 11.5 mph - N/A   Clear
1:52 AM 50.0 °F - 28.9 °F 44% 30.15 in 10.0 mi SW 8.1 mph - N/A   Clear
1:52 AM 48.9 °F - 30.0 °F 48% 30.15 in 10.0 mi SW 9.2 mph - N/A   Clear
2:52 AM 48.0 °F - 30.9 °F 52% 30.14 in 10.0 mi SSW 8.1 mph - N/A   Clear
3:52 AM 48.0 °F - 32.0 °F 54% 30.14 in 10.0 mi SSW 10.4 mph - N/A   Clear
4:52 AM 48.0 °F - 32.0 °F 54% 30.14 in 10.0 mi SSW 11.5 mph - N/A   Clear
5:52 AM 46.4 °F 42.9 °F 32.0 °F 57% 30.13 in 10.0 mi SSW 6.9 mph - N/A   Clear
6:52 AM 44.1 °F 40.8 °F 32.0 °F 63% 30.15 in 10.0 mi SSW 5.8 mph - N/A   Clear
7:52 AM 48.0 °F - 33.1 °F 56% 30.15 in 10.0 mi SSW 5.8 mph - N/A   Clear
8:52 AM 54.0 °F - 33.1 °F 45% 30.14 in 10.0 mi SSW 12.7 mph - N/A   Clear
9:52 AM 60.1 °F - 33.1 °F 36% 30.13 in 10.0 mi SSW 15.0 mph - N/A   Clear
10:52 AM 64.0 °F - 32.0 °F 30% 30.12 in 10.0 mi SSW 15.0 mph 23.0 mph N/A   Clear
11:52 AM 68.0 °F - 32.0 °F 26% 30.08 in 10.0 mi SSW 12.7 mph 21.9 mph N/A   Clear
12:52 PM 72.0 °F - 30.0 °F 21% 30.03 in 10.0 mi SSW 16.1 mph 27.6 mph N/A   Clear
1:52 PM 75.0 °F - 27.0 °F 17% 29.99 in 10.0 mi SSW 16.1 mph 28.8 mph N/A   Clear
2:52 PM 77.0 °F - 25.0 °F 15% 29.96 in 10.0 mi South 13.8 mph 29.9 mph N/A   Clear
3:52 PM 73.9 °F - 24.1 °F 16% 29.95 in 10.0 mi SSW 20.7 mph 33.4 mph N/A   Clear
4:52 PM 71.1 °F - 25.0 °F 18% 29.93 in 10.0 mi South 13.8 mph 26.5 mph N/A   Clear
5:52 PM 68.0 °F - 26.1 °F 21% 29.92 in 10.0 mi South 12.7 mph 21.9 mph N/A   Clear
6:52 PM 66.0 °F - 28.0 °F 24% 29.93 in 10.0 mi South 15.0 mph 21.9 mph N/A   Clear
7:52 PM 64.0 °F - 30.0 °F 28% 29.93 in 10.0 mi SSW 16.1 mph 25.3 mph N/A   Clear
8:52 PM 63.0 °F - 30.9 °F 30% 29.92 in 10.0 mi SSW 15.0 mph 23.0 mph N/A   Clear
9:52 PM 62.1 °F - 32.0 °F 32% 29.91 in 10.0 mi South 17.3 mph 24.2 mph N/A   Clear
10:52 PM 60.1 °F - 32.0 °F 35% 29.90 in 10.0 mi SSW 17.3 mph 28.8 mph N/A   Clear